Showing default

BEIDOU 3M12, 43603

Orbit data source: Space-Track

BEIDOU 3M12, 43603 is a payload satellite owned by CNSA (CN) in MEO that was launched on Fri, 24 Aug 2018 UTC via a CHANG ZHENG 3B/YZ-1 launch vehicle from the Xichang Space Center, China (XSC). Payload-class satellites include a variety of spacecraft equipped with specific instruments for various scientific and technological missions. These include communications satellites like Starlink; space stations such as the ISS; scientific satellites like the Hubble; Earth observation satellites from companies like Planet Labs, Umbra, and HawkEye 360; GPS; miniature CubeSats for education and research; and military/defense satellites.

Loading next visibility...
Identifier
43603, 2018-067B
Orbit
MEO
Country
Flag of CNCN / PRC
Related business
Manufacturer
SECM
Mission
Operational Defense Navigation
Bus & Motor
BD-3M2, Unknown motor
Mass
1,014 kg wet, ~850 kg dry
Launch date (UTC)
2018-08-24 (8 years ago)
Launch vehicle
CHANG ZHENG 3B/YZ-1
Launch site
Xichang Space Center, China (XSC)
Object type
Payload
Rocket body
Debris
Shape & HBR
Box + 2 Pan, 5.0 m
Radar Cross Section
8.984 m², Large (>1 m²)

Expand to show TLE details & history
Last TLE update: 1 day ago

TLE from 1 day ago
0 BEIDOU 3M12
1 43603U 18067B   26257.17948310  .00000009  00000-0  00000-0 0  9992
2 43603  54.1756 177.9874 0005253  25.1350 334.9086  1.86227021 54809
Epoch: 2026-09-14T04:18Z
TLE epoch observation values (Epoch: 2026-09-14T04:18:27.339Z)
Latitude
0.00002°
Longitude
120.20864°
Altitude
21,515.424 km
Speed
3.781 km/s
True Right ascension
11h 51m 56s
True Declination
0° 00' 00"
Sunlit
Object was in daylight at epoch
Visualization orbit readout
Latitude
Unknown
Longitude
Unknown
Altitude
Unknown
Speed
Unknown
Apparent Right ascension
Unknown
Apparent Declination
Unknown
Sunlit
N/A
Visualization observer readout
Local Sidereal Time
01:46:33
Azimuth
Unknown
Elevation
Unknown
Doppler factor
Unknown
Orbital elements
Apogee altitude
21,543.147 km
Perigee altitude
21,513.829 km
Semi-major axis
27,906.625 km
Eccentricity
0.00053
Inclination
54.1756°
RAAN
177.9874°
Arg. of periapsis
25.135°
True anomaly
334.88306°
Mean anomaly
334.9086°
Eccentric anomaly
334.89583°
Mean motion
0.46557 °/min
Orbital period
773.25 mins
BSTAR
0
Loading maneuver chart data...
Computing Atmospheric mass density...
Loading historical data...
Loading historical data...
Loading historical data...
Loading historical data...
Loading historical data...
Loading historical data...
Loading historical data...
Other satellites on launch #67 in the year 2018 (2018-08-24 UTC)

Documentation

Showing up to 5 results
|